Kaltag, AK

3:35 PM AKDT on July 27, 2017 (GMT -0800)
Kaltag

Weather History for PAKV - November, 2012

Change the Weather History Date:

Sunday, November 4, 2012

  Actual Average (PAGA) Record (PAGA)
Temperature  
Mean Temperature 8 °F -  
Max Temperature 17 °F 16 °F 39 °F (1990)
Min Temperature -5 °F 4 °F -31 °F (1975)
Degree Days  
Heating Degree Days 57    
Moisture  
Dew Point -7 °F    
Average Humidity 48    
Maximum Humidity 76    
Minimum Humidity 36    
Precipitation  
Precipitation 0.00 in - - ()
Sea Level Pressure  
Sea Level Pressure 30.01 in    
Wind  
Wind Speed 11 mph (NNE)    
Max Wind Speed 20 mph    
Max Gust Speed 29 mph    
Visibility 10 miles    
Events      
Averages and records for this station are not official NWS values.
T = Trace of Precipitation, MM = Missing Value Source: NWS Daily Summary

Daily Weather History Graph

Daily Weather History Graph

Search for Another Location

Airport or City:

Trip Planner

Search our weather history database for the weather conditions in past years. The results will help you decide how hot, cold, wet, or windy it might be!

Date:

Astronomy

Nov. 04, 2012 Rise Set
Actual Time 9:31 AM AKST 5:04 PM AKST
Civil Twilight 8:36 AM AKST 5:59 PM AKST
Nautical Twilight 7:37 AM AKST 6:58 PM AKST
Astronomical Twilight 6:41 AM AKST 7:53 PM AKST
Moon 9:35 PM AKST (11/4) 2:45 PM AKST (11/4)
Length of Visible Light 9h 23m
Length of Day
7h 33m
Waning Gibbous, 70% of the Moon is Illuminated
Nov 4
Waning Gibbous
Nov 6
Last Quarter
Nov 13
New
Nov 20
First Quarter
Nov 28
Full

Hourly Weather History & Observations

Time (AKST) Temp. Windchill Dew Point Humidity Pressure Visibility Wind Dir Wind Speed Gust Speed Precip Events Conditions
12:53 AM 14.0 °F -3.4 °F -2.9 °F 47% 29.97 in 10.0 mi NNE 19.6 mph 27.6 mph N/A   Clear
1:53 AM 14.0 °F -0.8 °F -4.0 °F 45% 29.98 in 10.0 mi NNE 13.8 mph 28.8 mph N/A   Clear
1:53 AM 12.9 °F -2.8 °F -5.1 °F 45% 29.98 in 10.0 mi NNE 15.0 mph 21.9 mph N/A   Clear
3:53 AM 12.0 °F -1.3 °F -6.0 °F 44% 29.99 in 10.0 mi NNE 10.4 mph - N/A   Clear
4:53 AM 12.0 °F -0.4 °F -5.1 °F 46% 29.99 in 10.0 mi NNE 9.2 mph 18.4 mph N/A   Clear
5:53 AM 12.0 °F -2.7 °F -6.0 °F 44% 29.99 in 10.0 mi NNE 12.7 mph 19.6 mph N/A   Clear
6:53 AM 12.0 °F -4.0 °F -5.1 °F 46% 29.99 in 10.0 mi NE 15.0 mph 19.6 mph N/A   Clear
7:53 AM 12.0 °F -1.3 °F -6.0 °F 44% 29.99 in 10.0 mi NNE 10.4 mph - N/A   Clear
8:53 AM 12.0 °F -2.0 °F -7.1 °F 42% 30.00 in 10.0 mi NNE 11.5 mph 18.4 mph N/A   Clear
9:53 AM 10.9 °F -1.8 °F -7.1 °F 44% 30.01 in 10.0 mi NNE 9.2 mph - N/A   Clear
10:53 AM 12.9 °F 0.7 °F -7.1 °F 41% 30.01 in 10.0 mi NNE 9.2 mph - N/A   Clear
11:53 AM 14.0 °F 1.2 °F -6.0 °F 41% 30.01 in 10.0 mi NNE 10.4 mph - N/A   Clear
12:53 PM 15.1 °F 3.3 °F -5.1 °F 41% 30.01 in 10.0 mi NE 9.2 mph 17.3 mph N/A   Clear
1:53 PM 16.0 °F 5.3 °F -5.1 °F 39% 30.01 in 10.0 mi NE 8.1 mph - N/A   Clear
2:53 PM 16.0 °F 7.4 °F -7.1 °F 36% 30.01 in 10.0 mi North 5.8 mph - N/A   Clear
3:53 PM 14.0 °F 3.9 °F -8.0 °F 37% 30.01 in 10.0 mi NNE 6.9 mph - N/A   Clear
4:53 PM 10.9 °F 2.9 °F -8.0 °F 42% 30.02 in 10.0 mi NE 4.6 mph - N/A   Clear
5:53 PM 6.1 °F - -9.0 °F 50% 30.03 in 10.0 mi Calm Calm - N/A   Clear
6:53 PM 3.0 °F - -8.0 °F 60% 30.03 in 10.0 mi Calm Calm - N/A   Clear
7:53 PM 1.9 °F - -7.1 °F 66% 30.03 in 10.0 mi Calm Calm - N/A   Clear
8:53 PM 1.0 °F -6.7 °F -9.0 °F 63% 30.04 in 10.0 mi SW 3.5 mph - N/A   Clear
9:53 PM -0.9 °F - -9.9 °F 66% 30.06 in 10.0 mi Calm Calm - N/A   Clear
10:53 PM -5.1 °F - -11.0 °F 76% 30.07 in 10.0 mi Calm Calm - N/A   Clear